When you browse on this site, cookies collect data to enhance your experience and personalize the content and advertising you see.
Visit our Privacy Policy to learn more. By continuing to use the site, you agree to this use of cookies and data.
  • Em Portugal
  • Lista de países
  • Para 7 dias
  • Temperatura da água
  • Mapas de satélite
  • Mapa do tempo
  • Widgets de tempo
  • user-avatar
    Iniciar Sessão

    Previsão horária em Ghent

    Hoje, 16 Dezembro, Domingo

    Tempo Temperatura Precipitação Vento Pressão Humidade
    00:00 -2°C° 0 mm 7 m/s 756 mmHg 92%
    01:00 -2°C° 0.1 mm 6 m/s 756 mmHg 93%
    02:00 -2°C° 0.1 mm 6 m/s 756 mmHg 93%
    03:00 -1°C° 0.1 mm 5 m/s 755 mmHg 94%
    04:00 -1°C° 0 mm 5 m/s 755 mmHg 95%
    05:00 -1°C° 0 mm 5 m/s 755 mmHg 95%
    06:00 -2°C° 0 mm 5 m/s 756 mmHg 95%
    07:00 -1°C° 0 mm 5 m/s 756 mmHg 95%
    08:00 -1°C° 0 mm 5 m/s 756 mmHg 96%
    09:00 0°C° 0 mm 5 m/s 757 mmHg 97%
    10:00 +1°C° 0 mm 5 m/s 757 mmHg 97%
    11:00 +1°C° 0 mm 5 m/s 757 mmHg 97%
    12:00 +2°C° 0 mm 5 m/s 757 mmHg 98%
    13:00 +2°C° 0 mm 5 m/s 757 mmHg 98%
    14:00 +1°C° 0 mm 4 m/s 757 mmHg 98%
    15:00 +1°C° 0 mm 4 m/s 757 mmHg 98%
    16:00 +1°C° 0 mm 4 m/s 757 mmHg 98%
    17:00 +1°C° 0 mm 4 m/s 757 mmHg 98%
    18:00 +1°C° 0 mm 4 m/s 757 mmHg 98%
    19:00 +1°C° 0 mm 4 m/s 757 mmHg 97%
    20:00 +1°C° 0 mm 4 m/s 757 mmHg 97%
    21:00 +1°C° 0 mm 4 m/s 757 mmHg 97%
    22:00 +1°C° 0.1 mm 5 m/s 757 mmHg 96%
    23:00 +2°C° 0.1 mm 5 m/s 757 mmHg 95%

    Amanhã, 17 Dezembro, Segunda-feira

    Tempo Temperatura Precipitação Vento Pressão Humidade
    00:00 +2°C° 0.1 mm 6 m/s 757 mmHg 94%
    01:00 +2°C° 0 mm 6 m/s 757 mmHg 94%
    02:00 +2°C° 0 mm 6 m/s 757 mmHg 94%
    03:00 +2°C° 0 mm 7 m/s 757 mmHg 93%
    04:00 +3°C° 0 mm 7 m/s 758 mmHg 93%
    05:00 +3°C° 0 mm 7 m/s 758 mmHg 93%
    06:00 +3°C° 0 mm 7 m/s 759 mmHg 93%
    07:00 +4°C° 0.2 mm 7 m/s 759 mmHg 92%
    08:00 +4°C° 0.2 mm 7 m/s 760 mmHg 91%
    09:00 +5°C° 0.2 mm 7 m/s 761 mmHg 90%
    10:00 +5°C° 0.1 mm 6 m/s 762 mmHg 88%
    11:00 +7°C° 0.1 mm 6 m/s 762 mmHg 86%
    12:00 +7°C° 0.1 mm 6 m/s 763 mmHg 84%
    13:00 +7°C° 0 mm 5 m/s 763 mmHg 84%
    14:00 +6°C° 0 mm 5 m/s 764 mmHg 85%
    15:00 +6°C° 0 mm 4 m/s 765 mmHg 85%
    16:00 +5°C° 0 mm 4 m/s 765 mmHg 87%
    17:00 +5°C° 0 mm 4 m/s 766 mmHg 88%
    18:00 +4°C° 0 mm 3 m/s 766 mmHg 90%
    19:00 +4°C° 0 mm 4 m/s 767 mmHg 91%
    20:00 +4°C° 0 mm 4 m/s 767 mmHg 92%
    21:00 +4°C° 0 mm 4 m/s 767 mmHg 93%
    22:00 +4°C° 0 mm 4 m/s 767 mmHg 93%
    23:00 +3°C° 0 mm 4 m/s 767 mmHg 93%

    Depois de amanhã, 18 Dezembro, Terça-feira

    Tempo Temperatura Precipitação Vento Pressão Humidade
    00:00 +3°C° 0 mm 4 m/s 767 mmHg 93%
    01:00 +2°C° 0 mm 5 m/s 767 mmHg 93%
    02:00 +2°C° 0 mm 5 m/s 766 mmHg 93%
    03:00 +2°C° 0 mm 5 m/s 766 mmHg 93%
    04:00 +2°C° 0 mm 5 m/s 766 mmHg 93%
    05:00 +2°C° 0 mm 5 m/s 765 mmHg 93%
    06:00 +2°C° 0 mm 5 m/s 765 mmHg 93%
    07:00 +2°C° 0 mm 6 m/s 765 mmHg 92%
    08:00 +2°C° 0 mm 6 m/s 764 mmHg 91%
    09:00 +3°C° 0 mm 6 m/s 764 mmHg 90%
    10:00 +4°C° 0 mm 6 m/s 763 mmHg 84%
    11:00 +5°C° 0 mm 7 m/s 762 mmHg 77%
    12:00 +5°C° 0 mm 7 m/s 762 mmHg 70%
    13:00 +5°C° 0 mm 7 m/s 761 mmHg 69%
    14:00 +5°C° 0 mm 7 m/s 760 mmHg 69%
    15:00 +5°C° 0 mm 7 m/s 759 mmHg 68%
    16:00 +4°C° 0 mm 7 m/s 759 mmHg 69%
    17:00 +4°C° 0 mm 7 m/s 758 mmHg 69%
    18:00 +4°C° 0 mm 8 m/s 758 mmHg 70%
    19:00 +4°C° 0 mm 8 m/s 757 mmHg 70%
    20:00 +4°C° 0 mm 8 m/s 757 mmHg 70%
    21:00 +5°C° 0 mm 8 m/s 756 mmHg 70%
    22:00 +5°C° 0.4 mm 8 m/s 756 mmHg 74%
    23:00 +5°C° 0.4 mm 8 m/s 755 mmHg 77%

    19 Dezembro, Quarta-feira

    Tempo Temperatura Precipitação Vento Pressão Humidade
    00:00 +5°C° 0.4 mm 8 m/s 755 mmHg 81%
    01:00 +5°C° 0.4 mm 8 m/s 755 mmHg 84%
    02:00 +5°C° 0.4 mm 7 m/s 756 mmHg 86%
    03:00 +7°C° 0.4 mm 6 m/s 756 mmHg 89%
    04:00 +5°C° 0 mm 6 m/s 756 mmHg 90%
    05:00 +5°C° 0 mm 6 m/s 757 mmHg 92%
    06:00 +5°C° 0 mm 5 m/s 757 mmHg 93%
    07:00 +5°C° 0 mm 5 m/s 757 mmHg 93%
    08:00 +5°C° 0 mm 5 m/s 758 mmHg 92%
    09:00 +5°C° 0 mm 5 m/s 758 mmHg 92%
    10:00 +5°C° 0 mm 5 m/s 758 mmHg 90%
    11:00 +5°C° 0 mm 6 m/s 758 mmHg 87%
    12:00 +7°C° 0 mm 6 m/s 757 mmHg 85%
    13:00 +7°C° 0.1 mm 5 m/s 757 mmHg 86%
    14:00 +7°C° 0.1 mm 5 m/s 757 mmHg 87%
    15:00 +6°C° 0.1 mm 4 m/s 757 mmHg 88%
    16:00 +6°C° 0.1 mm 4 m/s 757 mmHg 89%
    17:00 +6°C° 0.1 mm 4 m/s 758 mmHg 90%
    18:00 +5°C° 0.1 mm 4 m/s 758 mmHg 92%
    19:00 +5°C° 0 mm 4 m/s 758 mmHg 92%
    20:00 +5°C° 0 mm 4 m/s 758 mmHg 92%
    21:00 +4°C° 0 mm 3 m/s 759 mmHg 93%
    22:00 +4°C° 0 mm 3 m/s 759 mmHg 93%
    23:00 +4°C° 0 mm 3 m/s 759 mmHg 93%

    20 Dezembro, Quinta-feira

    Tempo Temperatura Precipitação Vento Pressão Humidade
    00:00 +3°C° 0 mm 3 m/s 759 mmHg 93%
    01:00 +3°C° 0 mm 4 m/s 759 mmHg 93%
    02:00 +3°C° 0 mm 4 m/s 760 mmHg 93%
    03:00 +3°C° 0 mm 4 m/s 760 mmHg 92%
    04:00 +3°C° 0 mm 4 m/s 760 mmHg 92%
    05:00 +3°C° 0 mm 4 m/s 760 mmHg 92%
    06:00 +1°C° 0 mm 5 m/s 760 mmHg 92%
    07:00 +2°C° 0 mm 5 m/s 761 mmHg 92%
    08:00 +2°C° 0 mm 5 m/s 761 mmHg 91%
    09:00 +2°C° 0 mm 6 m/s 761 mmHg 91%
    10:00 +3°C° 0 mm 6 m/s 761 mmHg 88%
    11:00 +4°C° 0 mm 6 m/s 761 mmHg 85%
    12:00 +5°C° 0 mm 7 m/s 761 mmHg 82%
    13:00 +4°C° 0 mm 7 m/s 761 mmHg 82%
    14:00 +4°C° 0 mm 7 m/s 761 mmHg 83%
    15:00 +4°C° 0 mm 7 m/s 760 mmHg 83%
    16:00 +4°C° 0.2 mm 7 m/s 760 mmHg 84%
    17:00 +5°C° 0.2 mm 8 m/s 760 mmHg 84%
    18:00 +5°C° 0.2 mm 8 m/s 760 mmHg 85%
    19:00 +5°C° 0.1 mm 8 m/s 760 mmHg 85%
    20:00 +5°C° 0.1 mm 8 m/s 760 mmHg 86%
    21:00 +5°C° 0.1 mm 7 m/s 759 mmHg 87%
    22:00 +5°C° 0.5 mm 8 m/s 759 mmHg 88%
    23:00 +5°C° 0.5 mm 8 m/s 758 mmHg 88%

    21 Dezembro, Sexta-feira

    Tempo Temperatura Precipitação Vento Pressão Humidade
    00:00 +6°C° 0.5 mm 8 m/s 758 mmHg 89%
    01:00 +6°C° 1.3 mm 8 m/s 757 mmHg 89%
    02:00 +6°C° 1.3 mm 7 m/s 756 mmHg 90%
    03:00 +6°C° 1.3 mm 7 m/s 756 mmHg 91%
    04:00 +8°C° 1.4 mm 7 m/s 755 mmHg 90%
    05:00 +8°C° 1.4 mm 7 m/s 754 mmHg 89%
    06:00 +9°C° 1.4 mm 8 m/s 754 mmHg 89%
    07:00 +9°C° 0.5 mm 8 m/s 753 mmHg 88%
    08:00 +8°C° 0.5 mm 9 m/s 752 mmHg 87%
    09:00 +8°C° 0.5 mm 9 m/s 752 mmHg 86%
    10:00 +9°C° 1.6 mm 10 m/s 751 mmHg 86%
    11:00 +9°C° 1.6 mm 11 m/s 751 mmHg 86%
    12:00 +11°C° 1.6 mm 11 m/s 750 mmHg 86%
    13:00 +11°C° 0.1 mm 11 m/s 751 mmHg 82%
    14:00 +9°C° 0.1 mm 10 m/s 752 mmHg 78%
    15:00 +9°C° 0.1 mm 10 m/s 753 mmHg 73%
    16:00 +10°C° 0 mm 9 m/s 754 mmHg 76%
    17:00 +8°C° 0 mm 9 m/s 755 mmHg 79%
    18:00 +9°C° 0 mm 8 m/s 756 mmHg 81%
    19:00 +9°C° 0.1 mm 8 m/s 756 mmHg 82%
    20:00 +8°C° 0.1 mm 9 m/s 756 mmHg 82%
    21:00 +10°C° 0.1 mm 9 m/s 757 mmHg 82%
    22:00 +8°C° 0 mm 9 m/s 757 mmHg 82%
    23:00 +8°C° 0 mm 9 m/s 757 mmHg 83%
    Mostrar mais